Regional Weather Roundup
Issued by NWS

Home | Current Version | Previous Version | Text Only | Print | Product List | Glossary Off
Versions: 1 2 3 4 5 6 7 8 9 10 11 12 13 14 15 16 17 18 19 20 21 22 23 24 25 26 27 28 29 30 31 32 33 34 35 36 37 38 39 40 41 42 43 44 45 46 47 48 49 50

000
ASUS43 KBIS 190601
RWRND

NORTH DAKOTA REGIONAL WEATHER ROUNDUP
NATIONAL WEATHER SERVICE BISMARCK ND
100 AM CDT SUN APR 19 2015

NOTE: "FAIR" INDICATES FEW OR NO CLOUDS BELOW 12,000 FEET WITH NO
SIGNIFICANT WEATHER AND/OR OBSTRUCTIONS TO VISIBILITY.


NDZ001>003-009>011-017-190700-
NORTHWEST NORTH DAKOTA

CITY           SKY/WX    TMP DP  RH WIND       PRES   REMARKS
WILLISTON      CLEAR     39  26  59 NW10      30.03S
6HR MIN TEMP:  39; 6HR MAX TEMP:  56;

MINOT          CLOUDY    44  35  70 NW18G29   29.93R
MINOT AFB      FAIR      45  40  83 NW16      29.92S
$$

NDZ018>021-031>035-040>046-190700-
SOUTHWEST NORTH DAKOTA

CITY           SKY/WX    TMP DP  RH WIND       PRES   REMARKS
BISMARCK       LGT RAIN  47  44  90 N21G31    29.92R
6HR MIN TEMP:  47; 6HR MAX TEMP:  54; 6HR PCP:  0.09;

DICKINSON      CLOUDY    44  31  60 NW15      29.99R
GARRISON         N/A     45  38  76 NW17      29.94S
6HR MIN TEMP:  45; 6HR MAX TEMP:  56; 6HR PCP:  0.24;

HETTINGER ARPT CLOUDY    42  36  79 NW14      29.99S
$$

NDZ004>008-012>016-024-026-027-054-190700-
NORTHEAST NORTH DAKOTA

CITY           SKY/WX    TMP DP  RH WIND       PRES   REMARKS
GRAND FORKS    CLOUDY    59  31  34 SE8       29.79F
GRND FRKS AFB  FAIR      59  37  44 VRB5      29.79F
DEVILS LAKE    CLOUDY    54  37  54 W17       29.82S
$$

NDZ022-023-025-028>030-036>039-047>053-190700-
SOUTHEAST NORTH DAKOTA

CITY           SKY/WX    TMP DP  RH WIND       PRES   REMARKS
FARGO          CLOUDY    58  47  66 S13       29.81S
6HR MIN TEMP:  58; 6HR MAX TEMP:  71;

JAMESTOWN      LGT RAIN  48  45  89 NW21G28   29.81R
$$



USA.gov is the U.S. government's official web portal to all federal, state and local government web resources and services.